Location: Enborne
(51.3833°N, 1.3667°W)
Time: 13:55:17
(UTC+00:00)

Cosmos 1844 Rocket - Pass Details

Date: 21 January 2021
Orbit: 826 x 843 km, 71.0° (Epoch: 05 March)

Event Time Altitude Azimuth Distance (km) Brightness Sun altitude
Rises 19:34:39 0° 226° (SW) 3,392 6.4 -27.3°
Reaches altitude 10° 19:37:10 10° 232° (SW) 2,459 5.7 -27.7°
Maximum altitude 19:42:39 51° 307° (NW) 1,055 3.4 -28.6°
Enters shadow 19:44:33 36° 359° (N) 1,307 3.6 -28.9°
